GW3644 Weather Reports


time (UTC)temp
C
wind
direction
speed
KPH
gust
KPH
rain 1hr
cm
rain 24hr
cm
rain mn
cm
humidity
%
barometer
mb
20260503174003 11 237 19.3 30.6 0.00 0.00 0.00 44 1017.7
20260503173503 11 263 16.1 33.8 0.00 0.00 0.00 46 1017.7
20260503173003 11 227 19.3 27.4 0.00 0.00 0.00 44 1017.9
20260503172503 12 205 19.3 35.4 0.00 0.00 0.00 45 1017.8
20260503172003 12 287 11.3 30.6 0.00 0.00 0.00 45 1017.8
20260503171718 11 261 17.7 30.6 0.00 0.00 0.00 43 1018.0
20260503171217 12 253 16.1 22.5 0.00 0.00 0.00 43 1018.2
20260503170718 12 287 6.4 27.4 0.00 0.00 0.00 42 1018.0
20260503151003 10 258 11.3 19.3 0.00 0.03 0.00 43 1019.0
20260503150717 10 201 9.7 38.6 0.00 0.03 0.00 46 1019.1
20260503131003 6 217 6.4 22.5 0.00 0.03 0.00 72 1019.6
20260503130503 6 247 9.7 22.5 0.00 0.03 0.00 72 1019.3
20260503130218 6 244 12.9 19.3 0.00 0.03 0.00 73 1019.4
20260503110503 0 206 3.2 8.0 0.00 0.03 0.00 97 1018.4
20260503110217 0 217 3.2 4.8 0.00 0.03 0.00 97 1018.5
20260503090503 0 206 0.0 3.2 0.00 0.03 0.00 96 1017.9
20260503081503 0 0 0.0 0.0 0.00 0.03 0.00 94 1018.0
20260503081003 0 0 0.0 0.0 0.00 0.03 0.00 94 1017.9
20260503080503 0 0 0.0 0.0 0.00 0.03 0.00 94 1017.8
20260503080217 0 0 0.0 0.0 0.00 0.03 0.00 94 1017.8
20260503072504 0 0 0.0 0.0 0.00 0.03 0.00 93 1017.9
20260503072003 0 200 1.6 3.2 0.00 0.03 0.00 93 1017.6
20260503071503 0 203 0.0 3.2 0.00 0.03 0.00 93 1017.7
20260503071004 0 203 1.6 3.2 0.00 0.03 0.00 93 1017.5
20260503070503 0 0 0.0 0.0 0.00 0.03 0.00 93 1017.5
20260503060217 1 258 1.6 3.2 0.00 0.03 0.00 89 1017.7
20260503055003 1 202 0.0 3.2 0.00 0.03 0.00 89 1017.7
20260503054503 1 242 0.0 3.2 0.00 0.03 0.00 89 1017.8
20260503054003 1 221 1.6 3.2 0.00 0.03 0.00 89 1017.8
20260503053718 1 0 0.0 0.0 0.00 0.03 0.00 90 1017.8
20260503053004 1 213 1.6 3.2 0.00 0.03 0.00 90 1017.8
20260503052503 1 207 0.0 3.2 0.00 0.03 0.00 90 1018.2
20260503052003 1 212 0.0 3.2 0.00 0.03 0.00 90 1018.2
20260503051718 1 191 1.6 3.2 0.00 0.03 0.00 89 1017.9
20260503051003 1 207 0.0 3.2 0.00 0.03 0.00 90 1018.0
20260503050503 1 0 0.0 0.0 0.00 0.03 0.00 90 1017.9
20260503050003 1 195 1.6 4.8 0.00 0.03 0.00 90 1018.0
20260503045503 1 186 0.0 3.2 0.00 0.03 0.00 91 1018.3
20260503045003 1 0 0.0 0.0 0.00 0.03 0.00 91 1018.0
20260503044503 1 0 0.0 0.0 0.00 0.03 0.00 91 1018.3
20260503044003 0 0 0.0 0.0 0.00 0.03 0.00 90 1018.4
20260503043717 1 0 0.0 0.0 0.00 0.03 0.00 89 1018.3
20260503043218 1 0 0.0 0.0 0.00 0.03 0.00 89 1018.2
20260503042503 1 0 0.0 0.0 0.00 0.03 0.00 89 1018.3
20260503042003 1 0 0.0 0.0 0.00 0.03 0.00 89 1018.0
20260503041503 0 0 0.0 0.0 0.00 0.03 0.00 89 1018.2
20260503041003 0 0 0.0 0.0 0.00 0.03 0.00 90 1018.3
20260503040503 0 185 0.0 3.2 0.00 0.03 0.00 89 1018.3
20260503040003 0 0 0.0 0.0 0.00 0.03 0.00 89 1018.2
20260503035503 1 0 0.0 0.0 0.00 0.03 0.03 88 1018.2
20260503035003 1 33 0.0 3.2 0.00 0.03 0.03 88 1018.3
20260503034717 1 30 1.6 4.8 0.00 0.03 0.03 88 1018.3
20260503034218 1 244 1.6 3.2 0.00 0.03 0.03 86 1018.4
20260503033504 1 243 1.6 3.2 0.00 0.03 0.03 85 1018.2
20260503033003 1 0 0.0 0.0 0.00 0.03 0.03 85 1018.3
20260503032503 1 0 0.0 0.0 0.00 0.03 0.03 86 1018.2
20260503032218 1 0 0.0 0.0 0.00 0.03 0.03 86 1018.2
20260503031503 1 243 1.6 3.2 0.00 0.03 0.03 87 1018.0
20260503031003 1 244 0.0 3.2 0.00 0.03 0.03 87 1018.2
20260503030504 1 278 0.0 3.2 0.00 0.03 0.03 87 1018.3
20260503030003 1 259 0.0 3.2 0.00 0.03 0.03 87 1018.2
20260503025503 2 0 0.0 0.0 0.00 0.03 0.03 86 1018.2
20260503025218 2 0 0.0 0.0 0.00 0.03 0.03 86 1018.5
20260503024503 2 0 0.0 0.0 0.00 0.03 0.03 85 1018.5
20260503024003 2 0 0.0 0.0 0.00 0.03 0.03 85 1018.5
20260503023503 2 0 0.0 0.0 0.00 0.03 0.03 85 1018.4
20260503023003 2 0 0.0 0.0 0.00 0.03 0.03 84 1018.6
20260503022503 2 0 0.0 0.0 0.00 0.03 0.03 84 1018.5
20260503022003 2 0 0.0 0.0 0.00 0.03 0.03 85 1018.4
20260503021503 2 0 0.0 0.0 0.00 0.03 0.03 84 1018.4
20260503021003 2 0 0.0 0.0 0.00 0.03 0.03 85 1018.4
20260503020503 3 0 0.0 0.0 0.00 0.03 0.03 84 1018.5
20260503020003 3 0 0.0 0.0 0.00 0.03 0.03 84 1018.5
20260503015504 3 0 0.0 0.0 0.00 0.03 0.03 83 1018.4
20260503015217 3 0 0.0 0.0 0.00 0.03 0.03 82 1018.5
20260503014503 3 259 1.6 3.2 0.00 0.03 0.03 81 1018.3
20260503014003 3 288 0.0 3.2 0.00 0.03 0.03 81 1018.6
20260503013504 3 264 1.6 3.2 0.00 0.03 0.03 80 1018.5
20260503013003 3 301 1.6 4.8 0.00 0.03 0.03 80 1018.4
20260503012718 3 329 3.2 8.0 0.00 0.03 0.03 80 1018.4
20260503012003 3 305 3.2 4.8 0.00 0.03 0.03 79 1018.3
20260503011718 3 288 1.6 8.0 0.00 0.03 0.03 79 1018.3
20260503011003 3 327 0.0 4.8 0.00 0.03 0.03 81 1018.2
20260503010503 3 99 0.0 3.2 0.00 0.03 0.03 81 1018.3
20260503010003 3 266 0.0 4.8 0.00 0.03 0.03 82 1018.2
20260503005503 3 304 0.0 3.2 0.00 0.03 0.03 82 1018.3
20260503005003 3 0 0.0 0.0 0.00 0.03 0.03 82 1018.2
20260503004718 4 260 0.0 3.2 0.00 0.03 0.03 82 1018.0
20260503004003 4 254 0.0 3.2 0.00 0.03 0.03 81 1018.0
20260503003503 4 320 0.0 3.2 0.00 0.03 0.03 81 1018.0
20260503003003 4 317 1.6 8.0 0.00 0.03 0.03 80 1017.8
20260503002503 4 272 0.0 3.2 0.00 0.03 0.03 79 1017.6
20260503002003 4 274 3.2 4.8 0.00 0.03 0.03 79 1017.8
20260503001503 4 350 3.2 8.0 0.00 0.03 0.03 78 1017.8
20260503001004 4 318 4.8 8.0 0.00 0.03 0.03 77 1017.7
20260503000504 4 315 6.4 8.0 0.00 0.03 0.03 77 1017.8
20260503000003 5 311 4.8 11.3 0.00 0.05 0.03 77 1017.6
20260502235504 5 327 4.8 11.3 0.00 0.05 0.03 77 1017.5
20260502235003 5 293 1.6 4.8 0.00 0.05 0.03 77 1017.6
20260502234504 5 315 8.0 11.3 0.00 0.05 0.03 75 1017.5
20260502234003 5 325 8.0 12.9 0.00 0.05 0.03 76 1017.4
20260502233503 5 331 3.2 8.0 0.00 0.05 0.03 75 1017.7
20260502233003 5 348 3.2 4.8 0.00 0.05 0.03 75 1017.6
20260502232503 5 332 8.0 11.3 0.00 0.05 0.03 74 1017.6
20260502232003 5 335 3.2 8.0 0.00 0.05 0.03 75 1017.6
20260502231503 5 2 6.4 12.9 0.00 0.05 0.03 74 1017.5
20260502231003 5 347 9.7 19.3 0.00 0.05 0.03 74 1017.5
20260502230503 5 347 6.4 16.1 0.00 0.10 0.03 74 1017.4
20260502230003 5 336 11.3 19.3 0.00 0.13 0.03 73 1017.4
20260502225719 5 326 9.7 19.3 0.00 0.23 0.03 73 1017.5
20260502225218 5 330 0.0 4.8 0.00 0.25 0.03 76 1017.6
20260502224717 5 340 4.8 8.0 0.00 0.28 0.03 74 1017.5
20260502224003 5 357 8.0 12.9 0.00 0.28 0.03 73 1017.4
20260502223503 5 6 4.8 8.0 0.00 0.28 0.03 73 1017.5
20260502223218 5 330 4.8 19.3 0.00 0.28 0.03 72 1017.6
20260502222503 5 339 14.5 19.3 0.00 0.28 0.03 71 1017.5
20260502222003 5 325 6.4 8.0 0.00 0.28 0.03 74 1017.6
20260502221503 5 305 12.9 22.5 0.00 0.28 0.03 74 1017.4
20260502221003 5 323 9.7 24.1 0.00 0.28 0.03 74 1017.5
20260502220503 5 325 12.9 22.5 0.00 0.28 0.03 74 1017.5
20260502220218 5 331 8.0 22.5 0.00 0.28 0.03 73 1017.4
20260502215503 5 326 9.7 27.4 0.00 0.28 0.03 74 1017.6
20260502215003 6 358 14.5 19.3 0.00 0.28 0.03 73 1017.2
20260502214503 6 322 11.3 22.5 0.00 0.28 0.03 73 1017.3
20260502214003 6 345 9.7 12.9 0.00 0.28 0.03 75 1017.1
20260502213503 6 325 8.0 16.1 0.00 0.28 0.03 74 1017.4
20260502213003 5 325 6.4 16.1 0.00 0.28 0.03 77 1017.2
20260502212716 5 327 6.4 22.5 0.00 0.28 0.03 76 1017.4
20260502212003 6 329 12.9 19.3 0.00 0.28 0.03 76 1017.2
20260502211503 6 347 8.0 16.1 0.00 0.28 0.03 77 1017.1
20260502211218 6 319 4.8 11.3 0.00 0.28 0.03 76 1017.1
20260502210503 5 319 4.8 19.3 0.00 0.28 0.03 78 1017.1
20260502210004 5 7 19.3 24.1 0.00 0.28 0.03 77 1016.9
20260502205716 5 349 6.4 19.3 0.00 0.28 0.03 80 1017.2
20260502205003 5 315 6.4 12.9 0.00 0.28 0.03 79 1017.2
20260502204716 5 296 6.4 16.1 0.00 0.28 0.03 80 1017.2
20260502204003 5 275 4.8 8.0 0.00 0.30 0.03 81 1017.3
20260502203503 5 330 17.7 24.1 0.00 0.30 0.03 80 1017.1
20260502203003 5 318 8.0 11.3 0.00 0.36 0.03 80 1017.1
20260502202503 5 354 11.3 24.1 0.00 0.38 0.03 80 1017.0
20260502202003 5 323 9.7 22.5 0.00 0.41 0.03 79 1017.2
20260502201503 5 326 16.1 24.1 0.00 0.41 0.03 78 1017.2
20260502201003 6 7 12.9 19.3 0.00 0.41 0.03 77 1017.0
20260502200503 5 317 11.3 30.6 0.00 0.46 0.03 77 1017.1
20260502200003 5 340 11.3 22.5 0.00 0.46 0.03 77 1017.2
20260502195718 5 342 16.1 22.5 0.00 0.46 0.03 78 1017.2
20260502195003 5 317 6.4 16.1 0.00 0.48 0.03 80 1017.2
20260502194503 5 304 4.8 16.1 0.00 0.48 0.03 81 1017.2
20260502194003 5 307 11.3 16.1 0.00 0.48 0.03 80 1017.2
20260502193503 5 321 11.3 12.9 0.00 0.48 0.03 80 1017.3
20260502193217 5 294 4.8 8.0 0.00 0.48 0.03 82 1017.3
20260502192503 5 301 8.0 16.1 0.00 0.48 0.03 81 1017.3
20260502192217 5 295 9.7 16.1 0.00 0.48 0.03 81 1017.2
20260502191503 5 306 6.4 12.9 0.00 0.51 0.03 81 1017.4
20260502191217 5 305 4.8 11.3 0.00 0.51 0.03 82 1017.4
20260502190503 5 312 4.8 16.1 0.00 0.51 0.03 81 1017.6
20260502190004 5 322 6.4 19.3 0.00 0.53 0.03 82 1017.3
20260502185504 5 318 4.8 19.3 0.00 0.58 0.03 81 1017.6
20260502185003 5 351 11.3 16.1 0.00 0.61 0.03 80 1017.6
20260502184503 5 343 9.7 22.5 0.00 0.61 0.03 82 1017.6
20260502184003 5 354 17.7 24.1 0.00 0.61 0.03 82 1017.7
20260502183718 5 356 19.3 24.1 0.00 0.61 0.03 81 1017.6
20260502183003 6 26 4.8 8.0 0.00 0.64 0.03 81 1017.7
20260502182503 5 357 9.7 16.1 0.00 0.64 0.03 84 1017.6
20260502182216 5 20 4.8 12.9 0.00 0.66 0.03 86 1017.6
20260502181503 5 332 8.0 19.3 0.00 0.66 0.03 85 1017.7
20260502181004 5 316 8.0 12.9 0.00 0.66 0.03 84 1017.7
20260502180503 5 337 8.0 16.1 0.00 0.66 0.03 85 1017.7
20260502180216 5 335 8.0 16.1 0.00 0.66 0.03 85 1017.8